SCP
-0 -0 -0 -0 -0 -0 -0 -0 -0 -0 -0 -0 -0 -0 -0 0 -0 -0 -0 -0 -0 -0 -0 -0 0 -0 -0 -0 0 -0 -0 -0 0 0 0 0 0 0 0 0 0 0 0 0 0 0 0
-0 -0 -0 -0 -0 -0 -0 -0 -0 -0 -0 -0 0 0 0 0 0 0 0 -0 0 -0 -0 -0 0 -0 -0 -0 0 -0 -0 0 0 0 0 0 0 0 0 0 0 0 0 0 0 0 0
-0 -0 -0 -0 -0 -0 -0 -0 -0 -0 0 -0 -0 -0 -0 -0 -0 -0 -0 -0 -0 -0 -0 -0 -0 -0 -0 0 0 -0 0 -0 -0 0 -0 0 0 0 0 0 0 0 0 0 0 0 0
0 -0 -0 -0 -0 -0 0 0 -0 -0 -0 -0 -0 -0 -0 -0 -0 -0 -0 -0 -0 -0 -0 0 -0 0 0 -0 -0 -0 -0 0 0 0 0 0 0 0 0 0 0 0 0 0 0 0 0
-0 -0 -0 -0 -0 -0 -0 -0 -0 -0 -0 -0 -0 -0 -0 -0 -0 -0 -0 -0 -0 -0 0 -0 0 0 -0 0 -0 0 0 0 0 0 0 0 0 0 0 0 0 0 0 0 0 0 0
-0 -0 -0 -0 -0 -0 -0 -0 -0 -0 -0 -0 -0 -0 0 -0 -0 0 0 0 0 0 0 0 0 0 -0 0 0 0 0 0 0 0 0 0 0 0 0 0 0 0 0 0 0 0 0
-0 -0 -0 -0 -0 -0 -0 -0 -0 -0 -0 -0 -0 -0 -0 0 -0 -0 -0 0 0 0 -0 -0 -0 -0 0 0 0 -0 -0 0 0 0 -0 0 0 0 0 0 0 0 0 0 0 0 0
-0 -0 -0 -0 -0 -0 -0 -0 -0 -0 -0 -0 -0 -0 -0 -0 -0 -0 0 0 0 -0 0 -0 -0 0 0 0 0 -0 -0 0 0 0 0 0 0 0 0 0 -0 -0 -0 0 0 0 0
-0 -0 -0 -0 -0 -0 -0 -0 -0 -0 -0 -0 -0 0 -0 -0 0 0 0 0 0 0 0 0 0 0 0 0 0 -0 -0 0 0 0 0 0 0 0 0 0 0 0 0 0 0 0 -0
-0 -0 -0 -0 -0 -0 -0 -0 -0 -0 -0 -0 -0 0 -0 0 0 0 0 0 0 0 0 0 0 0 0 0 0 0 0 -0 0 0 0 0 0 0 0 0 0 0 0 0 0 0 0
-0 -0 -0 -0 -0 -0 -0 -0 -0 -0 -0 -0 -0 -0 0 -0 0 0 0 0 0 0 0 0 0 0 0 0 0 0 0 0 0 0 -0 0 0 0 0 0 0 0 0 0 0 0 0
-0 -0 -0 -0 -0 -0 -0 -0 -0 -0 -0 -0 -0 -0 0 0 0 0 0 0 0 0 0 0 0 0 0 0 0 0 0 0 0 0 0 0 0 0 0 0 0 0 0 0 0 0 0
-0 -0 -0 -0 -0 -0 -0 -0 -0 -0 -0 -0 -0 -0 -0 0 -0 0 0 0 0 0 0 0 0 0 0 0 0 0 0 0 0 -0 0 0 0 0 0 0 0 0 0 0 0 0 0
-0 -0 -0 -0 -0 -0 -0 -0 -0 -0 -0 -0 0 -0 0 0 0 0 0 0 0 0 0 0 0 0 0 0 0 0 0 0 0 0 0 0 0 0 0 0 0 0 0 0 0 -0 0
-0 -0 -0 -0 -0 -0 -0 -0 -0 -0 0 -0 0 0 0 0 0 0 0 -0 0 0 0 0 0 0 0 0 0 0 0 0 0 0 0 0 0 0 0 0 0 0 0 0 0 0 0
-0 -0 -0 -0 -0 -0 -0 -0 -0 -0 -0 -0 0 0 0 0 0 0 0 0 0 0 0 0 0 0 0 0 0 0 0 0 0 0 0 0 0 0 0 0 0 0 0 0 0 0 0
-0 -0 -0 -0 -0 -0 -0 -0 -0 -0 -0 -0 -0 0 0 0 0 0 -0 0 0 0 0 0 0 0 0 0 0 0 0 0 0 0 0 0 0 0 0 0 0 0 0 0 0 0 0
-0 -0 -0 -0 -0 -0 -0 -0 -0 -0 -0 0 -0 -0 0 0 0 0 0 0 0 0 0 0 0 0 0 0 0 0 0 0 0 0 0 0 0 0 0 0 0 0 0 0 0 0 0
-0 -0 -0 -0 -0 -0 -0 -0 -0 -0 -0 -0 -0 -0 0 -0 0 -0 -0 0 0 0 0 0 0 0 0 0 0 0 0 0 0 0 0 0 0 0 0 0 0 0 0 0 0 0 0
-0 -0 -0 -0 -0 -0 -0 -0 -0 -0 -0 0 -0 0 -0 -0 -0 -0 -0 0 0 0 0 0 0 0 0 0 0 0 0 0 0 0 0 0 0 0 0 0 0 0 0 0 0 0 0
-0 -0 -0 -0 -0 -0 -0 -0 -0 -0 -0 0 0 0 -0 -0 -0 -0 0 0 0 0 0 0 0 0 0 0 0 0 0 0 0 0 0 0 0 0 0 0 0 0 0 0 0 0 0
-0 -0 -0 -0 -0 -0 -0 -0 -0 -0 -0 0 0 0 -0 -0 -0 -0 0 0 0 0 0 0 0 0 0 0 0 0 0 0 0 0 0 0 0 0 0 0 0 0 0 0 0 0 0
0 -0 -0 -0 -0 -0 -0 -0 -0 -0 -0 0 0 0 0 0 -0 0 0 0 0 0 0 0 0 0 0 0 0 0 0 0 0 0 0 0 0 0 0 0 0 0 0 0 0 0 0
0 0 0 -0 -0 -0 -0 -0 -0 -0 -0 0 0 0 0 0 0 0 -0 0 0 0 0 0 0 0 0 0 0 0 0 0 0 0 0 0 0 0 0 0 0 0 0 0 0 0 0
0 0 0 -0 -0 -0 -0 -0 -0 -0 -0 0 0 0 0 0 0 0 0 0 0 0 0 0 0 0 0 0 0 0 0 0 0 0 0 0 0 0 0 0 0 0 0 0 0 0 0
0 0 0 0 -0 -0 -0 -0 -0 -0 -0 0 0 0 0 0 0 0 0 0 0 0 0 0 0 0 0 0 0 0 0 0 0 0 0 0 0 0 0 0 0 0 0 0 0 0 0
0 0 0 0 0 -0 -0 -0 -0 -0 -0 0 0 0 0 0 0 0 0 0 0 0 0 0 0 0 0 0 0 0 0 0 0 0 0 0 0 0 0 0 0 0 0 0 0 0 0
0 0 0 0 0 0 -0 -0 -0 -0 -0 0 0 0 0 0 0 0 0 0 0 0 0 0 0 0 0 0 0 0 0 0 0 0 0 0 0 0 0 0 0 0 0 0 0 0 0
0 0 0 0 0 0 0 -0 -0 -0 -0 0 0 0 0 0 0 0 0 0 0 0 0 0 0 0 0 0 0 0 0 0 0 0 0 0 0 0 0 0 0 0 0 0 0 0 0
Wind_Speed_500mb
32 32 31 28 24 22 22 22 22 22 20 18 18 18 18 19 21 25 29 32 34 32 40 50 22 17 23 55 37 46 37 24 24 32 35 20 31 18 16 15 25 14 15 30 22 31 28
32 32 31 29 25 23 23 23 23 22 20 18 19 18 17 17 19 20 20 20 17 10 14 15 48 48 32 69 41 36 37 21 25 28 41 50 20 21 26 18 23 21 34 30 28 17 30
34 35 34 31 27 24 24 25 25 22 21 20 18 17 18 22 28 29 27 22 17 17 20 24 11 13 92 38 41 31 38 39 35 33 46 43 46 45 7 15 15 9 9 9 34 33 16
36 36 37 33 29 25 24 25 26 23 22 21 19 20 24 28 28 31 40 38 30 29 22 14 20 42 41 47 39 46 29 33 37 31 29 35 30 46 30 4 8 15 5 17 27 32 20
36 37 38 35 30 26 25 26 27 24 22 21 22 23 27 25 27 33 39 34 38 43 43 26 26 22 22 43 52 49 44 10 12 29 46 33 29 55 55 15 8 17 21 27 24 15 33
37 38 39 37 32 28 27 27 28 27 25 24 24 22 25 22 27 30 22 31 32 17 13 19 40 10 39 35 44 38 44 40 24 13 11 52 25 31 35 29 13 25 26 24 31 24 27
37 39 40 40 34 28 28 30 33 29 28 23 23 25 21 21 36 40 37 6 6 28 69 55 31 32 20 23 42 50 37 50 35 42 21 46 37 37 34 25 14 20 27 30 26 8 24
37 38 39 39 37 31 25 28 29 33 29 28 20 17 17 17 30 38 20 5 15 33 39 41 50 33 26 29 28 60 43 21 51 41 13 12 38 28 18 23 23 21 21 26 22 15 20
36 37 38 38 36 33 29 22 24 27 28 25 23 18 10 13 15 26 25 18 40 31 11 23 27 40 28 31 42 47 39 16 35 34 37 35 21 22 17 22 29 21 29 35 36 28 23
35 36 37 38 38 34 30 25 17 20 23 24 23 19 15 13 12 24 31 41 24 12 6 18 23 26 46 4 19 47 38 13 13 21 12 21 24 27 24 30 26 25 39 39 30 14 4
32 33 34 36 37 35 31 26 18 12 16 23 22 19 18 12 15 17 33 24 12 2 1 15 13 10 29 24 12 46 34 28 27 27 11 9 16 28 29 33 23 30 43 39 17 9 10
31 31 31 32 33 34 32 26 20 10 7 17 23 20 14 16 17 25 29 18 5 6 9 6 8 16 18 30 19 16 38 14 8 14 27 16 12 14 30 31 13 39 45 16 14 11 4
31 31 30 31 31 31 30 26 18 11 4 3 12 24 14 10 16 21 23 10 4 10 4 6 6 9 9 13 12 12 18 40 22 11 19 11 23 15 39 30 26 36 37 15 6 4 13
31 31 32 32 32 33 31 27 19 11 3 1 5 17 17 17 18 21 16 6 14 2 4 4 4 2 7 15 10 14 3 19 29 19 6 17 8 29 31 20 27 31 30 15 21 18 9
31 32 33 33 34 35 34 29 20 11 3 3 5 14 17 15 15 17 3 12 5 4 4 2 5 4 6 6 3 2 12 11 17 24 13 18 9 14 19 12 25 22 26 21 13 14 12
30 32 34 35 35 37 36 30 20 11 5 5 8 5 21 13 13 12 7 10 6 5 3 3 3 5 9 11 1 5 11 6 6 11 11 12 6 11 10 14 16 14 13 21 14 12 22
28 31 33 35 36 38 37 31 20 11 7 10 11 6 16 11 12 13 9 11 9 5 4 3 2 2 5 7 4 5 6 5 4 6 8 7 7 17 8 11 17 18 18 14 9 6 14
26 28 31 34 36 38 38 32 20 12 7 11 7 3 13 8 7 11 9 13 12 13 7 5 5 4 4 2 3 3 6 5 4 5 6 10 5 18 8 10 3 6 14 13 14 23 11
24 26 29 32 35 37 38 33 22 10 6 11 6 6 18 8 7 7 15 13 7 9 4 5 4 2 0 1 3 0 2 9 6 4 8 8 6 15 7 15 11 14 15 14 17 6 11
23 25 26 29 33 35 37 35 25 12 6 9 6 3 14 20 16 22 19 13 10 8 8 6 6 4 5 4 2 3 2 7 9 7 3 6 3 4 13 18 23 16 18 12 5 15 16
22 23 25 27 30 32 36 35 29 14 5 8 7 7 6 3 8 18 10 11 17 9 5 8 6 3 1 3 2 3 3 5 7 11 9 7 10 13 17 21 21 18 18 18 15 20 15
21 22 22 23 26 29 32 33 31 19 7 5 7 10 13 15 16 15 3 9 14 9 12 8 6 7 4 2 4 5 5 6 4 11 9 6 12 18 22 7 15 18 15 20 20 21 21
20 20 20 20 22 26 29 31 29 25 9 12 21 27 11 8 9 6 6 13 14 17 5 2 6 6 7 3 6 11 13 13 9 7 6 7 9 14 7 5 14 14 6 13 18 20 19
18 18 17 16 18 22 25 29 28 25 21 18 20 16 8 8 8 5 14 9 19 11 7 11 9 5 4 4 8 4 8 13 18 20 19 10 12 7 13 14 7 7 5 10 16 25 24
17 16 15 13 14 17 21 25 26 24 21 15 12 9 8 9 12 17 18 13 15 11 7 8 9 5 3 4 6 4 6 7 10 10 15 21 9 8 7 15 23 11 9 9 14 28 27
16 17 14 10 10 12 16 19 22 23 21 18 14 13 11 20 12 17 21 19 8 9 10 8 6 8 3 4 3 4 4 3 4 8 10 14 14 9 7 9 7 5 8 4 8 11 5
17 19 16 12 8 9 11 14 17 19 19 17 15 10 9 11 13 20 9 10 11 9 4 7 8 8 7 5 4 5 3 2 6 7 10 10 12 18 14 12 14 7 15 10 9 8 16
16 17 16 15 13 8 8 10 13 15 17 15 14 11 6 7 17 16 13 9 11 12 7 12 8 7 8 8 5 4 7 4 7 11 6 11 8 9 7 9 13 27 18 11 7 20 25
14 13 15 16 15 12 9 9 9 10 12 13 12 9 7 6 13 20 19 17 18 12 11 14 3 5 8 4 5 2 7 6 7 7 9 10 13 5 13 7 7 35 21 18 23 28 30
Wind_Direction_500mb
42 40 40 42 49 57 60 61 56 54 59 70 79 85 93 91 88 97 104 107 110 97 68 60 61 61 66 61 22 357 13 35 52 51 51 48 52 68 71 75 83 68 84 71 76 60 53
44 43 41 42 50 58 62 61 55 55 59 72 81 83 91 92 89 100 110 111 115 97 70 66 67 69 72 60 6 14 31 57 67 54 54 49 51 73 73 49 43 98 89 79 55 61 50
43 41 40 44 52 62 65 61 54 58 62 80 82 81 97 100 96 98 102 106 108 94 75 75 57 56 56 37 18 35 39 54 67 66 67 56 59 58 342 100 46 163 162 134 29 7 35
44 42 40 43 53 61 67 56 54 60 67 87 80 94 104 109 104 101 98 84 98 94 71 62 64 68 76 28 28 46 56 54 63 71 67 51 47 56 32 89 57 357 190 333 31 5 2
45 44 43 45 51 59 61 52 49 59 66 83 79 100 110 104 112 118 126 86 94 103 60 81 57 87 53 12 37 31 42 63 67 56 54 48 54 48 26 358 161 48 323 327 328 24 341
45 45 44 48 55 63 61 54 52 58 68 82 85 107 123 109 120 131 143 103 91 71 63 42 38 69 33 18 18 24 47 40 46 55 38 35 51 47 36 27 18 331 326 314 312 344 335
45 44 45 46 51 57 55 53 54 60 67 81 88 93 131 131 140 141 133 74 76 49 61 71 56 75 43 23 28 30 21 38 44 59 78 40 54 31 28 34 358 316 317 316 349 21 332
46 44 45 45 46 47 48 51 52 55 62 63 74 85 96 131 166 166 174 56 126 130 82 64 60 59 50 32 34 21 30 57 44 46 71 72 47 25 33 19 350 338 330 340 314 255 328
47 45 44 43 43 42 41 43 48 53 55 56 59 63 78 99 136 188 212 151 127 118 89 51 47 40 16 40 39 9 23 30 35 56 60 65 33 15 10 20 349 339 351 330 313 305 269
46 45 44 41 39 39 38 38 41 47 49 49 45 47 54 112 90 124 139 145 140 131 137 13 18 18 8 108 52 22 19 11 55 36 65 54 36 16 21 11 347 324 340 317 307 284 271
41 41 41 40 37 34 34 33 34 45 45 37 38 45 56 82 127 138 150 148 143 161 195 6 32 19 30 68 331 19 15 56 58 33 325 60 30 22 19 357 345 335 315 304 307 244 203
34 35 33 32 31 27 24 24 25 23 32 45 47 46 57 83 108 138 151 146 109 219 67 50 33 14 33 38 39 33 37 43 77 73 72 70 75 28 3 343 11 339 330 255 216 177 161
32 29 28 24 23 20 16 12 11 5 342 19 26 35 48 102 126 134 150 139 173 67 171 52 3 4 46 35 52 38 32 44 38 338 26 151 50 50 8 353 354 9 358 342 306 311 32
30 26 24 22 19 17 13 8 5 0 352 331 23 31 54 90 123 140 141 207 70 69 49 86 337 157 48 3 59 35 41 47 39 13 17 359 2 11 358 13 330 10 10 13 309 343 1
27 23 21 20 17 15 13 10 10 13 95 121 97 54 64 78 116 141 175 55 98 118 96 265 198 265 98 74 349 70 53 46 32 17 31 348 70 7 24 5 6 343 10 312 288 256 278
19 21 18 18 15 13 14 13 16 27 96 140 145 136 37 65 111 117 78 100 107 113 158 220 344 337 6 22 344 20 29 26 58 32 345 23 328 57 43 330 29 2 358 347 340 326 319
13 17 15 16 13 12 14 15 19 32 98 128 143 114 14 82 101 62 85 87 122 110 154 345 93 95 42 20 21 59 36 120 26 58 10 346 312 358 215 24 360 8 10 336 279 359 318
10 11 13 14 11 10 14 16 18 33 113 130 127 114 1 145 56 53 82 119 117 129 128 109 84 59 15 42 118 90 39 55 124 352 359 15 315 322 3 151 12 347 342 360 338 347 335
6 6 10 12 11 9 12 16 19 37 122 121 97 91 26 144 109 93 122 107 97 149 130 140 126 0 146 99 270 197 101 142 152 285 10 14 1 317 154 173 208 5 325 320 324 231 296
2 2 6 10 11 8 11 14 18 23 78 146 115 73 45 59 79 126 131 135 126 97 106 115 117 174 190 190 26 164 168 169 211 234 174 276 297 325 323 306 311 306 319 306 287 284 334
356 2 3 6 10 10 12 13 18 21 72 129 82 83 105 94 70 117 112 150 148 151 139 181 147 215 303 229 245 204 171 192 190 175 214 283 294 319 296 295 316 294 287 286 274 271 271
349 355 0 3 7 12 15 18 17 24 53 121 106 130 87 100 117 128 120 159 166 140 169 169 222 164 217 290 336 311 282 217 223 182 238 213 289 311 294 13 312 285 263 267 268 254 253
340 347 355 359 5 11 18 23 28 31 55 87 104 119 118 143 145 184 139 149 166 153 163 174 165 196 227 281 281 286 266 257 245 246 238 262 299 318 294 321 292 252 222 266 265 250 244
336 339 351 354 2 10 17 26 33 43 67 95 117 121 118 138 174 140 146 139 152 168 146 170 182 238 131 288 288 236 220 228 230 232 236 261 273 290 294 309 264 92 271 226 265 280 274
351 340 348 352 358 8 16 24 33 41 55 67 95 114 115 119 139 133 151 139 139 145 142 183 192 182 273 270 249 243 190 206 204 216 210 226 271 292 280 301 281 279 201 229 273 295 293
2 359 354 354 355 6 12 20 29 34 41 52 66 88 105 123 197 153 153 174 163 180 168 180 183 206 231 257 248 258 289 341 206 199 213 205 244 255 273 293 271 70 164 221 281 260 87
355 4 359 8 3 2 7 12 24 28 32 44 51 70 100 107 157 153 174 178 162 169 165 159 180 187 194 210 231 246 245 303 255 241 190 203 224 239 250 256 272 221 168 183 253 28 325
335 360 360 6 16 5 1 1 13 18 26 36 43 53 105 122 160 179 168 147 153 183 189 151 166 197 198 217 236 211 241 196 258 244 227 223 205 211 215 249 267 158 160 220 334 307 304
316 349 350 358 9 15 359 349 357 6 17 25 34 42 85 130 164 190 195 197 188 175 169 174 262 155 176 188 234 275 225 217 259 276 197 240 215 260 220 242 136 193 231 257 275 286 299
Wind_Speed_850mb
32 32 31 28 24 22 22 22 22 22 20 18 18 18 18 19 21 25 29 32 34 32 40 50 22 17 23 55 37 46 37 24 24 32 35 20 31 18 16 15 25 14 15 30 22 31 28
32 32 31 29 25 23 23 23 23 22 20 18 19 18 17 17 19 20 20 20 17 10 14 15 48 48 32 69 41 36 37 21 25 28 41 50 20 21 26 18 23 21 34 30 28 17 30
34 35 34 31 27 24 24 25 25 22 21 20 18 17 18 22 28 29 27 22 17 17 20 24 11 13 92 38 41 31 38 39 35 33 46 43 46 45 7 15 15 9 9 9 34 33 16
36 36 37 33 29 25 24 25 26 23 22 21 19 20 24 28 28 31 40 38 30 29 22 14 20 42 41 47 39 46 29 33 37 31 29 35 30 46 30 4 8 15 5 17 27 32 20
36 37 38 35 30 26 25 26 27 24 22 21 22 23 27 25 27 33 39 34 38 43 43 26 26 22 22 43 52 49 44 10 12 29 46 33 29 55 55 15 8 17 21 27 24 15 33
37 38 39 37 32 28 27 27 28 27 25 24 24 22 25 22 27 30 22 31 32 17 13 19 40 10 39 35 44 38 44 40 24 13 11 52 25 31 35 29 13 25 26 24 31 24 27
37 39 40 40 34 28 28 30 33 29 28 23 23 25 21 21 36 40 37 6 6 28 69 55 31 32 20 23 42 50 37 50 35 42 21 46 37 37 34 25 14 20 27 30 26 8 24
37 38 39 39 37 31 25 28 29 33 29 28 20 17 17 17 30 38 20 5 15 33 39 41 50 33 26 29 28 60 43 21 51 41 13 12 38 28 18 23 23 21 21 26 22 15 20
36 37 38 38 36 33 29 22 24 27 28 25 23 18 10 13 15 26 25 18 40 31 11 23 27 40 28 31 42 47 39 16 35 34 37 35 21 22 17 22 29 21 29 35 36 28 23
35 36 37 38 38 34 30 25 17 20 23 24 23 19 15 13 12 24 31 41 24 12 6 18 23 26 46 4 19 47 38 13 13 21 12 21 24 27 24 30 26 25 39 39 30 14 4
32 33 34 36 37 35 31 26 18 12 16 23 22 19 18 12 15 17 33 24 12 2 1 15 13 10 29 24 12 46 34 28 27 27 11 9 16 28 29 33 23 30 43 39 17 9 10
31 31 31 32 33 34 32 26 20 10 7 17 23 20 14 16 17 25 29 18 5 6 9 6 8 16 18 30 19 16 38 14 8 14 27 16 12 14 30 31 13 39 45 16 14 11 4
31 31 30 31 31 31 30 26 18 11 4 3 12 24 14 10 16 21 23 10 4 10 4 6 6 9 9 13 12 12 18 40 22 11 19 11 23 15 39 30 26 36 37 15 6 4 13
31 31 32 32 32 33 31 27 19 11 3 1 5 17 17 17 18 21 16 6 14 2 4 4 4 2 7 15 10 14 3 19 29 19 6 17 8 29 31 20 27 31 30 15 21 18 9
31 32 33 33 34 35 34 29 20 11 3 3 5 14 17 15 15 17 3 12 5 4 4 2 5 4 6 6 3 2 12 11 17 24 13 18 9 14 19 12 25 22 26 21 13 14 12
30 32 34 35 35 37 36 30 20 11 5 5 8 5 21 13 13 12 7 10 6 5 3 3 3 5 9 11 1 5 11 6 6 11 11 12 6 11 10 14 16 14 13 21 14 12 22
28 31 33 35 36 38 37 31 20 11 7 10 11 6 16 11 12 13 9 11 9 5 4 3 2 2 5 7 4 5 6 5 4 6 8 7 7 17 8 11 17 18 18 14 9 6 14
26 28 31 34 36 38 38 32 20 12 7 11 7 3 13 8 7 11 9 13 12 13 7 5 5 4 4 2 3 3 6 5 4 5 6 10 5 18 8 10 3 6 14 13 14 23 11
24 26 29 32 35 37 38 33 22 10 6 11 6 6 18 8 7 7 15 13 7 9 4 5 4 2 0 1 3 0 2 9 6 4 8 8 6 15 7 15 11 14 15 14 17 6 11
23 25 26 29 33 35 37 35 25 12 6 9 6 3 14 20 16 22 19 13 10 8 8 6 6 4 5 4 2 3 2 7 9 7 3 6 3 4 13 18 23 16 18 12 5 15 16
22 23 25 27 30 32 36 35 29 14 5 8 7 7 6 3 8 18 10 11 17 9 5 8 6 3 1 3 2 3 3 5 7 11 9 7 10 13 17 21 21 18 18 18 15 20 15
21 22 22 23 26 29 32 33 31 19 7 5 7 10 13 15 16 15 3 9 14 9 12 8 6 7 4 2 4 5 5 6 4 11 9 6 12 18 22 7 15 18 15 20 20 21 21
20 20 20 20 22 26 29 31 29 25 9 12 21 27 11 8 9 6 6 13 14 17 5 2 6 6 7 3 6 11 13 13 9 7 6 7 9 14 7 5 14 14 6 13 18 20 19
18 18 17 16 18 22 25 29 28 25 21 18 20 16 8 8 8 5 14 9 19 11 7 11 9 5 4 4 8 4 8 13 18 20 19 10 12 7 13 14 7 7 5 10 16 25 24
17 16 15 13 14 17 21 25 26 24 21 15 12 9 8 9 12 17 18 13 15 11 7 8 9 5 3 4 6 4 6 7 10 10 15 21 9 8 7 15 23 11 9 9 14 28 27
16 17 14 10 10 12 16 19 22 23 21 18 14 13 11 20 12 17 21 19 8 9 10 8 6 8 3 4 3 4 4 3 4 8 10 14 14 9 7 9 7 5 8 4 8 11 5
17 19 16 12 8 9 11 14 17 19 19 17 15 10 9 11 13 20 9 10 11 9 4 7 8 8 7 5 4 5 3 2 6 7 10 10 12 18 14 12 14 7 15 10 9 8 16
16 17 16 15 13 8 8 10 13 15 17 15 14 11 6 7 17 16 13 9 11 12 7 12 8 7 8 8 5 4 7 4 7 11 6 11 8 9 7 9 13 27 18 11 7 20 25
14 13 15 16 15 12 9 9 9 10 12 13 12 9 7 6 13 20 19 17 18 12 11 14 3 5 8 4 5 2 7 6 7 7 9 10 13 5 13 7 7 35 21 18 23 28 30
Wind_Direction_850mb
42 40 40 42 49 57 60 61 56 54 59 70 79 85 93 91 88 97 104 107 110 97 68 60 61 61 66 61 22 357 13 35 52 51 51 48 52 68 71 75 83 68 84 71 76 60 53
44 43 41 42 50 58 62 61 55 55 59 72 81 83 91 92 89 100 110 111 115 97 70 66 67 69 72 60 6 14 31 57 67 54 54 49 51 73 73 49 43 98 89 79 55 61 50
43 41 40 44 52 62 65 61 54 58 62 80 82 81 97 100 96 98 102 106 108 94 75 75 57 56 56 37 18 35 39 54 67 66 67 56 59 58 342 100 46 163 162 134 29 7 35
44 42 40 43 53 61 67 56 54 60 67 87 80 94 104 109 104 101 98 84 98 94 71 62 64 68 76 28 28 46 56 54 63 71 67 51 47 56 32 89 57 357 190 333 31 5 2
45 44 43 45 51 59 61 52 49 59 66 83 79 100 110 104 112 118 126 86 94 103 60 81 57 87 53 12 37 31 42 63 67 56 54 48 54 48 26 358 161 48 323 327 328 24 341
45 45 44 48 55 63 61 54 52 58 68 82 85 107 123 109 120 131 143 103 91 71 63 42 38 69 33 18 18 24 47 40 46 55 38 35 51 47 36 27 18 331 326 314 312 344 335
45 44 45 46 51 57 55 53 54 60 67 81 88 93 131 131 140 141 133 74 76 49 61 71 56 75 43 23 28 30 21 38 44 59 78 40 54 31 28 34 358 316 317 316 349 21 332
46 44 45 45 46 47 48 51 52 55 62 63 74 85 96 131 166 166 174 56 126 130 82 64 60 59 50 32 34 21 30 57 44 46 71 72 47 25 33 19 350 338 330 340 314 255 328
47 45 44 43 43 42 41 43 48 53 55 56 59 63 78 99 136 188 212 151 127 118 89 51 47 40 16 40 39 9 23 30 35 56 60 65 33 15 10 20 349 339 351 330 313 305 269
46 45 44 41 39 39 38 38 41 47 49 49 45 47 54 112 90 124 139 145 140 131 137 13 18 18 8 108 52 22 19 11 55 36 65 54 36 16 21 11 347 324 340 317 307 284 271
41 41 41 40 37 34 34 33 34 45 45 37 38 45 56 82 127 138 150 148 143 161 195 6 32 19 30 68 331 19 15 56 58 33 325 60 30 22 19 357 345 335 315 304 307 244 203
34 35 33 32 31 27 24 24 25 23 32 45 47 46 57 83 108 138 151 146 109 219 67 50 33 14 33 38 39 33 37 43 77 73 72 70 75 28 3 343 11 339 330 255 216 177 161
32 29 28 24 23 20 16 12 11 5 342 19 26 35 48 102 126 134 150 139 173 67 171 52 3 4 46 35 52 38 32 44 38 338 26 151 50 50 8 353 354 9 358 342 306 311 32
30 26 24 22 19 17 13 8 5 0 352 331 23 31 54 90 123 140 141 207 70 69 49 86 337 157 48 3 59 35 41 47 39 13 17 359 2 11 358 13 330 10 10 13 309 343 1
27 23 21 20 17 15 13 10 10 13 95 121 97 54 64 78 116 141 175 55 98 118 96 265 198 265 98 74 349 70 53 46 32 17 31 348 70 7 24 5 6 343 10 312 288 256 278
19 21 18 18 15 13 14 13 16 27 96 140 145 136 37 65 111 117 78 100 107 113 158 220 344 337 6 22 344 20 29 26 58 32 345 23 328 57 43 330 29 2 358 347 340 326 319
13 17 15 16 13 12 14 15 19 32 98 128 143 114 14 82 101 62 85 87 122 110 154 345 93 95 42 20 21 59 36 120 26 58 10 346 312 358 215 24 360 8 10 336 279 359 318
10 11 13 14 11 10 14 16 18 33 113 130 127 114 1 145 56 53 82 119 117 129 128 109 84 59 15 42 118 90 39 55 124 352 359 15 315 322 3 151 12 347 342 360 338 347 335
6 6 10 12 11 9 12 16 19 37 122 121 97 91 26 144 109 93 122 107 97 149 130 140 126 0 146 99 270 197 101 142 152 285 10 14 1 317 154 173 208 5 325 320 324 231 296
2 2 6 10 11 8 11 14 18 23 78 146 115 73 45 59 79 126 131 135 126 97 106 115 117 174 190 190 26 164 168 169 211 234 174 276 297 325 323 306 311 306 319 306 287 284 334
356 2 3 6 10 10 12 13 18 21 72 129 82 83 105 94 70 117 112 150 148 151 139 181 147 215 303 229 245 204 171 192 190 175 214 283 294 319 296 295 316 294 287 286 274 271 271
349 355 0 3 7 12 15 18 17 24 53 121 106 130 87 100 117 128 120 159 166 140 169 169 222 164 217 290 336 311 282 217 223 182 238 213 289 311 294 13 312 285 263 267 268 254 253
340 347 355 359 5 11 18 23 28 31 55 87 104 119 118 143 145 184 139 149 166 153 163 174 165 196 227 281 281 286 266 257 245 246 238 262 299 318 294 321 292 252 222 266 265 250 244
336 339 351 354 2 10 17 26 33 43 67 95 117 121 118 138 174 140 146 139 152 168 146 170 182 238 131 288 288 236 220 228 230 232 236 261 273 290 294 309 264 92 271 226 265 280 274
351 340 348 352 358 8 16 24 33 41 55 67 95 114 115 119 139 133 151 139 139 145 142 183 192 182 273 270 249 243 190 206 204 216 210 226 271 292 280 301 281 279 201 229 273 295 293
2 359 354 354 355 6 12 20 29 34 41 52 66 88 105 123 197 153 153 174 163 180 168 180 183 206 231 257 248 258 289 341 206 199 213 205 244 255 273 293 271 70 164 221 281 260 87
355 4 359 8 3 2 7 12 24 28 32 44 51 70 100 107 157 153 174 178 162 169 165 159 180 187 194 210 231 246 245 303 255 241 190 203 224 239 250 256 272 221 168 183 253 28 325
335 360 360 6 16 5 1 1 13 18 26 36 43 53 105 122 160 179 168 147 153 183 189 151 166 197 198 217 236 211 241 196 258 244 227 223 205 211 215 249 267 158 160 220 334 307 304
316 349 350 358 9 15 359 349 357 6 17 25 34 42 85 130 164 190 195 197 188 175 169 174 262 155 176 188 234 275 225 217 259 276 197 240 215 260 220 242 136 193 231 257 275 286 299